QPF
0.05 0.04 0.05 0.06 0.08 0.07 0.08 0.10 0.07 0.05 0.05 0.05 0.05 0.06 0.07 0.06 0.03 0.03 0.03 0.06 0.08 0.08 0.09 0.10 0.12 0.14 0.13 0.09 0.06 0.05 0.04 0.05 0.05 0.04 0.04 0.03 0.02 0.02 0.02 0.02 0.01 0.02 0.02 0.01 0.01 0.02 0.03 0.03 0.04
0.04 0.04 0.06 0.07 0.06 0.06 0.09 0.09 0.09 0.06 0.03 0.03 0.03 0.03 0.04 0.05 0.04 0.02 0.03 0.08 0.08 0.08 0.07 0.07 0.12 0.12 0.11 0.08 0.07 0.07 0.05 0.04 0.04 0.04 0.03 0.02 0.02 0.02 0.02 0.01 0.01 0.02 0.03 0.02 0.01 0.01 0.02 0.03 0.04
0.05 0.05 0.06 0.05 0.05 0.06 0.09 0.08 0.10 0.07 0.04 0.03 0.03 0.03 0.04 0.05 0.05 0.03 0.03 0.07 0.08 0.07 0.08 0.12 0.13 0.10 0.09 0.08 0.09 0.07 0.07 0.05 0.04 0.04 0.03 0.02 0.02 0.02 0.02 0.01 0.01 0.02 0.03 0.03 0.01 0.01 0.02 0.03 0.04
0.05 0.05 0.05 0.05 0.04 0.05 0.06 0.07 0.10 0.09 0.05 0.02 0.03 0.03 0.04 0.06 0.04 0.03 0.04 0.06 0.08 0.07 0.08 0.12 0.14 0.11 0.09 0.06 0.06 0.05 0.05 0.04 0.04 0.03 0.03 0.02 0.01 0.01 0.01 0.01 0.01 0.02 0.02 0.02 0.01 0.02 0.02 0.04 0.05
0.04 0.04 0.04 0.05 0.06 0.07 0.05 0.06 0.10 0.10 0.08 0.04 0.05 0.03 0.03 0.06 0.06 0.05 0.05 0.06 0.07 0.05 0.07 0.13 0.18 0.15 0.11 0.06 0.05 0.04 0.04 0.03 0.02 0.01 0.02 0.02 0.02 0.01 0.01 0.01 0.01 0.02 0.02 0.01 0.02 0.03 0.04 0.04 0.04
0.03 0.04 0.04 0.04 0.07 0.08 0.05 0.06 0.10 0.09 0.08 0.05 0.06 0.05 0.03 0.04 0.07 0.08 0.07 0.10 0.08 0.04 0.05 0.11 0.14 0.16 0.10 0.08 0.06 0.03 0.02 0.01 0.01 0.01 0.01 0.02 0.02 0.02 0.01 0.01 0.01 0.02 0.02 0.02 0.02 0.03 0.04 0.03 0.04
0.02 0.02 0.03 0.03 0.06 0.06 0.05 0.05 0.09 0.10 0.08 0.05 0.04 0.04 0.08 0.06 0.08 0.09 0.11 0.12 0.09 0.04 0.04 0.06 0.08 0.13 0.11 0.06 0.03 0.01 0.01 0.01 0.01 0.01 0.01 0.01 0.01 0.01 0.01 0.01 0.01 0.02 0.02 0.02 0.02 0.02 0.04 0.05 0.06
0.03 0.02 0.02 0.02 0.03 0.04 0.04 0.05 0.06 0.08 0.09 0.05 0.03 0.02 0.06 0.08 0.08 0.09 0.08 0.09 0.08 0.05 0.03 0.02 0.02 0.04 0.04 0.03 0.02 0.01 0.01 0.01 0.00 0.01 0.01 0.01 0.01 0.01 0.01 0.01 0.01 0.01 0.02 0.02 0.02 0.02 0.03 0.05 0.05
0.03 0.02 0.02 0.02 0.03 0.03 0.03 0.04 0.05 0.06 0.08 0.07 0.03 0.03 0.04 0.05 0.06 0.09 0.07 0.05 0.06 0.04 0.03 0.01 0.00 0.01 0.01 0.01 0.01 0.01 0.01 0.00 0.00 0.00 0.00 0.00 0.00 0.00 0.00 0.01 0.02 0.02 0.02 0.02 0.02 0.02 0.03 0.06 0.07
0.02 0.02 0.02 0.03 0.03 0.03 0.03 0.05 0.05 0.06 0.08 0.09 0.05 0.04 0.03 0.04 0.05 0.07 0.06 0.04 0.03 0.02 0.01 0.00 0.00 0.00 0.00 0.00 0.00 0.00 0.00 0.00 0.00 0.00 0.00 0.00 0.00 0.00 0.00 0.01 0.02 0.03 0.02 0.02 0.02 0.02 0.01 0.02 0.03
0.02 0.03 0.02 0.02 0.02 0.02 0.03 0.05 0.04 0.05 0.10 0.10 0.06 0.03 0.03 0.05 0.06 0.07 0.05 0.03 0.02 0.01 0.01 0.00 0.00 0.00 0.00 0.00 0.00 0.00 0.00 0.00 0.00 0.00 0.00 0.00 0.00 0.00 0.00 0.00 0.00 0.01 0.01 0.01 0.01 0.01 0.00 0.00 0.01
0.02 0.04 0.04 0.03 0.03 0.03 0.03 0.03 0.04 0.06 0.11 0.10 0.08 0.04 0.03 0.05 0.07 0.08 0.08 0.05 0.03 0.02 0.01 0.00 0.00 0.00 0.00 0.00 0.00 0.00 0.00 0.00 0.00 0.00 0.00 0.00 0.00 0.00 0.00 0.00 0.00 0.01 0.00 0.01 0.01 0.02 0.01 0.01 0.00
0.03 0.04 0.05 0.04 0.04 0.04 0.04 0.03 0.04 0.05 0.08 0.07 0.07 0.06 0.05 0.05 0.06 0.06 0.05 0.04 0.03 0.02 0.01 0.00 0.00 0.00 0.00 0.00 0.00 0.00 0.00 0.00 0.00 0.00 0.00 0.00 0.00 0.00 0.00 0.00 0.00 0.01 0.01 0.01 0.01 0.02 0.01 0.01 0.01
0.03 0.03 0.03 0.03 0.03 0.05 0.05 0.04 0.03 0.04 0.06 0.05 0.05 0.04 0.05 0.06 0.05 0.04 0.03 0.03 0.02 0.02 0.01 0.00 0.00 0.00 0.00 0.00 0.00 0.00 0.00 0.00 0.00 0.00 0.00 0.00 0.00 0.00 0.00 0.00 0.00 0.01 0.01 0.01 0.01 0.01 0.00 0.01 0.01
0.02 0.02 0.03 0.02 0.02 0.04 0.05 0.04 0.03 0.03 0.04 0.03 0.03 0.04 0.04 0.05 0.04 0.03 0.03 0.04 0.03 0.02 0.01 0.01 0.01 0.00 0.00 0.00 0.00 0.00 0.00 0.00 0.00 0.00 0.00 0.00 0.00 0.00 0.00 0.00 0.00 0.01 0.01 0.00 0.00 0.00 0.00 0.01 0.01
0.02 0.02 0.03 0.03 0.02 0.02 0.02 0.03 0.02 0.02 0.02 0.02 0.03 0.04 0.04 0.04 0.03 0.03 0.03 0.03 0.02 0.02 0.02 0.01 0.01 0.00 0.00 0.00 0.00 0.00 0.00 0.00 0.00 0.00 0.00 0.00 0.00 0.00 0.00 0.00 0.00 0.00 0.01 0.01 0.01 0.01 0.01 0.01 0.01
0.01 0.02 0.03 0.03 0.02 0.01 0.01 0.01 0.01 0.01 0.02 0.01 0.02 0.04 0.04 0.03 0.02 0.02 0.02 0.02 0.01 0.01 0.01 0.01 0.01 0.00 0.00 0.00 0.00 0.00 0.00 0.00 0.00 0.00 0.00 0.00 0.00 0.00 0.00 0.00 0.01 0.01 0.01 0.01 0.01 0.00 0.01 0.01 0.01
0.01 0.02 0.02 0.04 0.02 0.01 0.01 0.01 0.01 0.01 0.01 0.01 0.02 0.03 0.04 0.04 0.03 0.02 0.01 0.01 0.01 0.01 0.01 0.01 0.01 0.01 0.01 0.00 0.00 0.00 0.00 0.00 0.00 0.00 0.00 0.00 0.00 0.00 0.00 0.00 0.00 0.00 0.00 0.00 0.00 0.00 0.00 0.00 0.01
0.01 0.01 0.02 0.03 0.02 0.01 0.01 0.00 0.00 0.01 0.01 0.01 0.01 0.02 0.03 0.03 0.03 0.02 0.01 0.01 0.01 0.01 0.01 0.01 0.01 0.01 0.00 0.00 0.00 0.00 0.00 0.00 0.00 0.00 0.00 0.00 0.00 0.00 0.00 0.00 0.00 0.00 0.00 0.00 0.00 0.00 0.00 0.00 0.00
0.01 0.01 0.01 0.02 0.01 0.01 0.01 0.00 0.00 0.01 0.00 0.00 0.01 0.01 0.03 0.04 0.03 0.02 0.02 0.01 0.01 0.01 0.01 0.01 0.01 0.01 0.01 0.00 0.00 0.00 0.00 0.00 0.00 0.00 0.00 0.00 0.00 0.00 0.00 0.00 0.00 0.00 0.00 0.00 0.00 0.00 0.00 0.00 0.00
0.00 0.01 0.00 0.01 0.01 0.01 0.01 0.00 0.01 0.01 0.01 0.00 0.01 0.01 0.01 0.02 0.04 0.04 0.02 0.02 0.01 0.01 0.01 0.01 0.01 0.01 0.01 0.00 0.00 0.00 0.00 0.00 0.00 0.00 0.00 0.00 0.00 0.00 0.00 0.00 0.00 0.00 0.00 0.00 0.00 0.00 0.00 0.00 0.01
0.01 0.01 0.00 0.00 0.01 0.01 0.01 0.01 0.01 0.01 0.01 0.00 0.00 0.01 0.00 0.01 0.02 0.03 0.03 0.03 0.02 0.01 0.01 0.01 0.01 0.01 0.01 0.01 0.00 0.00 0.00 0.00 0.00 0.00 0.00 0.00 0.00 0.00 0.00 0.00 0.00 0.00 0.00 0.00 0.00 0.00 0.00 0.00 0.00
0.00 0.01 0.01 0.01 0.01 0.01 0.01 0.01 0.00 0.00 0.00 0.00 0.00 0.01 0.01 0.00 0.01 0.01 0.01 0.01 0.01 0.01 0.01 0.01 0.01 0.01 0.01 0.01 0.00 0.00 0.00 0.00 0.00 0.00 0.00 0.00 0.00 0.00 0.00 0.00 0.00 0.00 0.00 0.00 0.00 0.00 0.00 0.00 0.00
0.01 0.01 0.01 0.01 0.01 0.01 0.00 0.01 0.01 0.00 0.00 0.00 0.00 0.01 0.01 0.00 0.00 0.00 0.00 0.01 0.01 0.01 0.01 0.01 0.01 0.01 0.01 0.01 0.01 0.00 0.00 0.00 0.00 0.00 0.00 0.00 0.00 0.00 0.00 0.00 0.00 0.00 0.00 0.00 0.00 0.00 0.00 0.00 0.00
0.01 0.01 0.01 0.01 0.01 0.01 0.01 0.01 0.00 0.00 0.00 0.00 0.00 0.00 0.01 0.00 0.00 0.00 0.00 0.00 0.01 0.01 0.01 0.01 0.01 0.01 0.01 0.01 0.01 0.01 0.00 0.00 0.00 0.00 0.00 0.00 0.00 0.00 0.00 0.00 0.00 0.00 0.00 0.00 0.00 0.00 0.00 0.00 0.00
0.01 0.01 0.01 0.01 0.02 0.01 0.02 0.01 0.00 0.00 0.00 0.00 0.00 0.00 0.01 0.01 0.00 0.00 0.00 0.00 0.00 0.00 0.00 0.01 0.01 0.01 0.01 0.01 0.01 0.01 0.00 0.00 0.00 0.00 0.00 0.00 0.00 0.00 0.00 0.00 0.00 0.00 0.00 0.00 0.00 0.00 0.00 0.01 0.01
0.01 0.01 0.02 0.02 0.02 0.02 0.01 0.00 0.00 0.00 0.00 0.00 0.00 0.00 0.01 0.01 0.00 0.00 0.00 0.00 0.01 0.00 0.00 0.01 0.01 0.01 0.01 0.01 0.00 0.00 0.00 0.00 0.00 0.00 0.00 0.00 0.00 0.00 0.00 0.00 0.00 0.00 0.00 0.00 0.00 0.00 0.01 0.01 0.00
0.01 0.01 0.01 0.01 0.01 0.01 0.01 0.00 0.00 0.00 0.00 0.00 0.00 0.00 0.00 0.00 0.00 0.00 0.00 0.00 0.00 0.00 0.00 0.00 0.01 0.00 0.01 0.01 0.00 0.00 0.00 0.00 0.00 0.00 0.00 0.00 0.00 0.00 0.00 0.00 0.00 0.00 0.00 0.00 0.00 0.01 0.01 0.01 0.00
0.01 0.01 0.01 0.01 0.01 0.01 0.00 0.00 0.00 0.00 0.00 0.00 0.00 0.00 0.00 0.00 0.00 0.00 0.00 0.00 0.00 0.00 0.00 0.00 0.00 0.00 0.00 0.01 0.00 0.00 0.00 0.00 0.00 0.00 0.00 0.00 0.00 0.00 0.00 0.00 0.00 0.00 0.00 0.00 0.00 0.00 0.00 0.00 0.00
0.01 0.01 0.01 0.01 0.01 0.01 0.01 0.01 0.00 0.00 0.00 0.00 0.00 0.00 0.00 0.00 0.00 0.00 0.00 0.00 0.00 0.00 0.00 0.00 0.00 0.00 0.01 0.01 0.00 0.00 0.00 0.00 0.00 0.00 0.00 0.00 0.00 0.00 0.00 0.00 0.00 0.00 0.00 0.00 0.00 0.00 0.00 0.00 0.00
MSLP
1010.26 1011.06 1012.03 1013.04 1013.98 1014.72 1015.20 1015.40 1015.36 1015.19 1014.98 1014.86 1014.89 1015.07 1015.36 1015.69 1015.94 1016.03 1015.93 1015.64 1015.22 1014.77 1014.38 1014.12 1014.04 1014.11 1014.30 1014.51 1014.70 1014.80 1014.81 1014.75 1014.64 1014.56 1014.52 1014.54 1014.63 1014.73 1014.84 1014.90 1014.90 1014.87 1014.81 1014.75 1014.71 1014.71 1014.75 1014.81 1014.87
1010.69 1011.65 1012.73 1013.78 1014.69 1015.33 1015.67 1015.70 1015.49 1015.15 1014.83 1014.62 1014.60 1014.77 1015.07 1015.43 1015.72 1015.87 1015.82 1015.60 1015.26 1014.88 1014.55 1014.35 1014.31 1014.41 1014.60 1014.80 1014.97 1015.07 1015.07 1015.00 1014.90 1014.81 1014.77 1014.78 1014.82 1014.89 1014.94 1014.95 1014.92 1014.85 1014.79 1014.73 1014.72 1014.75 1014.81 1014.88 1014.95
1011.18 1012.27 1013.41 1014.47 1015.32 1015.86 1016.06 1015.95 1015.61 1015.18 1014.78 1014.53 1014.49 1014.65 1014.96 1015.33 1015.64 1015.81 1015.80 1015.63 1015.35 1015.04 1014.78 1014.64 1014.64 1014.75 1014.93 1015.13 1015.27 1015.34 1015.32 1015.24 1015.13 1015.03 1014.96 1014.94 1014.94 1014.95 1014.94 1014.89 1014.82 1014.74 1014.67 1014.64 1014.66 1014.73 1014.84 1014.95 1015.04
1011.70 1012.86 1014.02 1015.05 1015.82 1016.25 1016.34 1016.13 1015.72 1015.24 1014.84 1014.59 1014.57 1014.74 1015.06 1015.41 1015.72 1015.88 1015.89 1015.75 1015.51 1015.26 1015.07 1014.98 1015.01 1015.13 1015.30 1015.47 1015.58 1015.60 1015.55 1015.44 1015.31 1015.19 1015.10 1015.04 1014.99 1014.95 1014.88 1014.79 1014.69 1014.59 1014.53 1014.53 1014.59 1014.71 1014.87 1015.02 1015.15
1012.22 1013.39 1014.52 1015.46 1016.13 1016.46 1016.47 1016.20 1015.78 1015.33 1014.96 1014.78 1014.80 1015.01 1015.33 1015.67 1015.95 1016.09 1016.09 1015.96 1015.76 1015.55 1015.41 1015.36 1015.41 1015.54 1015.68 1015.81 1015.86 1015.84 1015.74 1015.59 1015.44 1015.30 1015.18 1015.10 1015.02 1014.94 1014.83 1014.71 1014.58 1014.48 1014.43 1014.46 1014.56 1014.72 1014.92 1015.12 1015.29
1012.73 1013.85 1014.87 1015.70 1016.24 1016.47 1016.42 1016.14 1015.76 1015.38 1015.12 1015.04 1015.14 1015.38 1015.72 1016.04 1016.28 1016.39 1016.36 1016.23 1016.04 1015.88 1015.77 1015.76 1015.83 1015.94 1016.05 1016.12 1016.12 1016.03 1015.88 1015.70 1015.52 1015.37 1015.25 1015.15 1015.06 1014.96 1014.84 1014.70 1014.57 1014.47 1014.43 1014.47 1014.60 1014.79 1015.02 1015.25 1015.44
1013.23 1014.24 1015.11 1015.78 1016.18 1016.32 1016.21 1015.96 1015.65 1015.40 1015.27 1015.30 1015.50 1015.80 1016.14 1016.44 1016.64 1016.71 1016.65 1016.51 1016.35 1016.21 1016.14 1016.15 1016.22 1016.32 1016.39 1016.40 1016.34 1016.19 1016.00 1015.78 1015.59 1015.44 1015.33 1015.25 1015.17 1015.08 1014.96 1014.82 1014.69 1014.59 1014.55 1014.60 1014.73 1014.93 1015.17 1015.40 1015.59
1013.74 1014.60 1015.30 1015.79 1016.04 1016.07 1015.94 1015.72 1015.50 1015.37 1015.38 1015.55 1015.83 1016.19 1016.54 1016.82 1016.98 1017.00 1016.92 1016.78 1016.63 1016.52 1016.48 1016.51 1016.59 1016.67 1016.70 1016.66 1016.53 1016.34 1016.10 1015.87 1015.68 1015.55 1015.46 1015.41 1015.37 1015.31 1015.21 1015.08 1014.95 1014.85 1014.81 1014.84 1014.96 1015.14 1015.35 1015.56 1015.74
1014.27 1014.97 1015.49 1015.80 1015.91 1015.85 1015.69 1015.50 1015.37 1015.36 1015.49 1015.76 1016.12 1016.51 1016.86 1017.11 1017.24 1017.24 1017.14 1017.00 1016.87 1016.79 1016.79 1016.84 1016.92 1016.98 1016.98 1016.89 1016.72 1016.49 1016.23 1016.00 1015.83 1015.72 1015.67 1015.67 1015.67 1015.64 1015.57 1015.46 1015.34 1015.23 1015.17 1015.19 1015.27 1015.42 1015.60 1015.78 1015.92
1014.84 1015.39 1015.74 1015.90 1015.89 1015.75 1015.57 1015.41 1015.34 1015.41 1015.63 1015.97 1016.37 1016.77 1017.11 1017.33 1017.43 1017.40 1017.30 1017.17 1017.08 1017.03 1017.06 1017.14 1017.23 1017.28 1017.25 1017.14 1016.94 1016.69 1016.42 1016.20 1016.04 1015.97 1015.96 1016.00 1016.04 1016.05 1016.01 1015.92 1015.81 1015.70 1015.62 1015.61 1015.66 1015.77 1015.91 1016.05 1016.17
1015.43 1015.87 1016.11 1016.15 1016.05 1015.86 1015.66 1015.52 1015.49 1015.60 1015.86 1016.21 1016.61 1016.99 1017.30 1017.48 1017.55 1017.51 1017.42 1017.32 1017.25 1017.25 1017.31 1017.41 1017.51 1017.56 1017.53 1017.40 1017.19 1016.94 1016.68 1016.47 1016.34 1016.30 1016.32 1016.39 1016.46 1016.50 1016.48 1016.41 1016.31 1016.20 1016.11 1016.08 1016.11 1016.18 1016.29 1016.41 1016.51
1016.03 1016.41 1016.58 1016.56 1016.41 1016.20 1015.99 1015.85 1015.84 1015.96 1016.20 1016.53 1016.88 1017.21 1017.46 1017.61 1017.64 1017.60 1017.52 1017.44 1017.41 1017.45 1017.54 1017.66 1017.77 1017.83 1017.81 1017.69 1017.49 1017.25 1017.02 1016.83 1016.72 1016.69 1016.73 1016.81 1016.89 1016.94 1016.94 1016.89 1016.80 1016.70 1016.62 1016.58 1016.59 1016.66 1016.76 1016.86 1016.95
1016.62 1016.98 1017.13 1017.10 1016.95 1016.74 1016.54 1016.41 1016.38 1016.47 1016.67 1016.93 1017.21 1017.46 1017.64 1017.73 1017.74 1017.69 1017.62 1017.57 1017.57 1017.64 1017.75 1017.90 1018.02 1018.10 1018.09 1017.99 1017.83 1017.62 1017.41 1017.24 1017.14 1017.12 1017.16 1017.23 1017.31 1017.35 1017.36 1017.32 1017.24 1017.16 1017.10 1017.08 1017.10 1017.18 1017.27 1017.38 1017.47
1017.16 1017.52 1017.69 1017.68 1017.57 1017.40 1017.23 1017.11 1017.07 1017.11 1017.23 1017.40 1017.59 1017.74 1017.85 1017.89 1017.87 1017.81 1017.75 1017.72 1017.74 1017.82 1017.95 1018.10 1018.24 1018.34 1018.35 1018.30 1018.18 1018.01 1017.84 1017.70 1017.61 1017.57 1017.59 1017.64 1017.69 1017.72 1017.72 1017.68 1017.63 1017.58 1017.55 1017.55 1017.61 1017.70 1017.82 1017.94 1018.04
1017.61 1017.99 1018.19 1018.24 1018.20 1018.09 1017.97 1017.87 1017.81 1017.80 1017.84 1017.91 1017.99 1018.06 1018.09 1018.08 1018.04 1017.98 1017.92 1017.90 1017.93 1018.01 1018.13 1018.28 1018.43 1018.54 1018.60 1018.59 1018.52 1018.41 1018.29 1018.17 1018.09 1018.04 1018.02 1018.03 1018.04 1018.04 1018.02 1017.99 1017.96 1017.94 1017.95 1018.00 1018.09 1018.21 1018.34 1018.47 1018.58
1017.96 1018.34 1018.58 1018.71 1018.74 1018.72 1018.66 1018.59 1018.52 1018.46 1018.43 1018.41 1018.40 1018.38 1018.35 1018.30 1018.24 1018.18 1018.13 1018.10 1018.12 1018.19 1018.30 1018.43 1018.58 1018.71 1018.80 1018.85 1018.85 1018.81 1018.74 1018.65 1018.57 1018.50 1018.45 1018.41 1018.37 1018.34 1018.31 1018.29 1018.27 1018.29 1018.33 1018.41 1018.53 1018.67 1018.81 1018.95 1019.06
1018.20 1018.57 1018.85 1019.04 1019.16 1019.22 1019.22 1019.19 1019.11 1019.03 1018.93 1018.83 1018.75 1018.67 1018.60 1018.54 1018.47 1018.42 1018.37 1018.34 1018.34 1018.37 1018.45 1018.56 1018.70 1018.85 1018.98 1019.09 1019.16 1019.19 1019.17 1019.12 1019.05 1018.97 1018.88 1018.80 1018.72 1018.66 1018.61 1018.59 1018.59 1018.62 1018.70 1018.80 1018.93 1019.07 1019.22 1019.35 1019.45
1018.36 1018.71 1019.00 1019.25 1019.45 1019.58 1019.64 1019.64 1019.57 1019.45 1019.30 1019.15 1019.02 1018.91 1018.83 1018.76 1018.72 1018.67 1018.63 1018.59 1018.57 1018.57 1018.61 1018.69 1018.81 1018.96 1019.13 1019.30 1019.44 1019.54 1019.59 1019.59 1019.53 1019.44 1019.33 1019.21 1019.10 1019.01 1018.95 1018.92 1018.94 1018.99 1019.07 1019.18 1019.31 1019.44 1019.57 1019.67 1019.75
1018.47 1018.78 1019.09 1019.38 1019.64 1019.83 1019.94 1019.95 1019.87 1019.72 1019.53 1019.34 1019.18 1019.06 1018.98 1018.95 1018.93 1018.92 1018.90 1018.86 1018.82 1018.78 1018.78 1018.82 1018.92 1019.08 1019.27 1019.49 1019.69 1019.86 1019.98 1020.02 1019.99 1019.91 1019.79 1019.65 1019.52 1019.41 1019.34 1019.32 1019.33 1019.39 1019.47 1019.57 1019.68 1019.78 1019.88 1019.95 1019.99
1018.56 1018.85 1019.17 1019.50 1019.79 1020.02 1020.14 1020.15 1020.04 1019.85 1019.61 1019.39 1019.21 1019.10 1019.05 1019.07 1019.11 1019.14 1019.15 1019.13 1019.08 1019.01 1018.97 1018.97 1019.05 1019.20 1019.41 1019.66 1019.92 1020.15 1020.32 1020.41 1020.42 1020.35 1020.24 1020.10 1019.96 1019.85 1019.78 1019.76 1019.77 1019.83 1019.90 1019.98 1020.06 1020.13 1020.18 1020.22 1020.23
1018.67 1018.97 1019.30 1019.66 1019.97 1020.21 1020.31 1020.28 1020.11 1019.85 1019.56 1019.30 1019.10 1019.00 1019.01 1019.08 1019.19 1019.30 1019.36 1019.37 1019.32 1019.24 1019.17 1019.14 1019.18 1019.32 1019.53 1019.81 1020.11 1020.39 1020.61 1020.74 1020.79 1020.75 1020.66 1020.53 1020.40 1020.30 1020.24 1020.23 1020.25 1020.30 1020.36 1020.41 1020.46 1020.49 1020.50 1020.51 1020.50
1018.84 1019.16 1019.53 1019.90 1020.22 1020.43 1020.48 1020.37 1020.12 1019.77 1019.40 1019.08 1018.86 1018.78 1018.83 1018.97 1019.17 1019.35 1019.48 1019.54 1019.52 1019.44 1019.35 1019.29 1019.32 1019.43 1019.64 1019.93 1020.25 1020.55 1020.82 1020.99 1021.08 1021.08 1021.01 1020.92 1020.82 1020.74 1020.70 1020.69 1020.72 1020.77 1020.81 1020.85 1020.86 1020.86 1020.85 1020.83 1020.82
1019.08 1019.44 1019.85 1020.24 1020.55 1020.71 1020.68 1020.46 1020.08 1019.61 1019.14 1018.75 1018.50 1018.43 1018.51 1018.73 1019.01 1019.28 1019.50 1019.61 1019.63 1019.58 1019.49 1019.42 1019.42 1019.52 1019.72 1020.00 1020.33 1020.66 1020.95 1021.16 1021.28 1021.32 1021.30 1021.24 1021.18 1021.13 1021.11 1021.13 1021.17 1021.21 1021.25 1021.26 1021.26 1021.24 1021.21 1021.18 1021.17
1019.35 1019.79 1020.24 1020.65 1020.93 1021.02 1020.88 1020.53 1020.01 1019.41 1018.82 1018.35 1018.05 1017.97 1018.09 1018.36 1018.72 1019.08 1019.38 1019.57 1019.64 1019.62 1019.55 1019.49 1019.48 1019.56 1019.75 1020.03 1020.35 1020.69 1021.00 1021.25 1021.41 1021.49 1021.51 1021.50 1021.48 1021.46 1021.48 1021.51 1021.56 1021.60 1021.64 1021.64 1021.63 1021.59 1021.56 1021.54 1021.54
1019.65 1020.16 1020.66 1021.07 1021.31 1021.32 1021.07 1020.58 1019.92 1019.17 1018.47 1017.91 1017.55 1017.45 1017.59 1017.90 1018.32 1018.76 1019.14 1019.40 1019.54 1019.57 1019.54 1019.49 1019.49 1019.57 1019.75 1020.02 1020.35 1020.69 1021.02 1021.29 1021.49 1021.61 1021.68 1021.71 1021.73 1021.75 1021.79 1021.84 1021.90 1021.95 1021.97 1021.98 1021.96 1021.92 1021.89 1021.88 1021.91
1019.90 1020.49 1021.03 1021.44 1021.63 1021.56 1021.20 1020.58 1019.79 1018.92 1018.12 1017.47 1017.07 1016.94 1017.07 1017.41 1017.87 1018.36 1018.80 1019.14 1019.35 1019.44 1019.45 1019.44 1019.46 1019.55 1019.74 1020.00 1020.33 1020.69 1021.03 1021.32 1021.56 1021.72 1021.84 1021.91 1021.97 1022.02 1022.08 1022.15 1022.21 1022.26 1022.28 1022.28 1022.27 1022.24 1022.22 1022.22 1022.26
1020.07 1020.70 1021.27 1021.67 1021.82 1021.67 1021.23 1020.52 1019.63 1018.67 1017.79 1017.09 1016.64 1016.48 1016.60 1016.95 1017.43 1017.95 1018.44 1018.83 1019.09 1019.25 1019.32 1019.36 1019.42 1019.54 1019.74 1020.02 1020.35 1020.72 1021.08 1021.40 1021.67 1021.88 1022.03 1022.14 1022.23 1022.31 1022.39 1022.46 1022.52 1022.57 1022.60 1022.60 1022.59 1022.57 1022.56 1022.58 1022.63
1020.08 1020.76 1021.32 1021.70 1021.81 1021.62 1021.11 1020.35 1019.41 1018.43 1017.52 1016.79 1016.33 1016.15 1016.25 1016.58 1017.06 1017.59 1018.10 1018.52 1018.84 1019.05 1019.18 1019.28 1019.40 1019.56 1019.79 1020.10 1020.45 1020.84 1021.22 1021.57 1021.86 1022.11 1022.30 1022.45 1022.57 1022.67 1022.76 1022.83 1022.89 1022.94 1022.96 1022.97 1022.97 1022.96 1022.97 1023.00 1023.05
1019.93 1020.60 1021.15 1021.49 1021.56 1021.34 1020.82 1020.05 1019.14 1018.18 1017.30 1016.60 1016.15 1015.98 1016.06 1016.37 1016.82 1017.33 1017.84 1018.28 1018.63 1018.89 1019.09 1019.26 1019.43 1019.65 1019.93 1020.27 1020.66 1021.06 1021.47 1021.84 1022.17 1022.45 1022.67 1022.85 1023.00 1023.12 1023.21 1023.29 1023.36 1023.40 1023.43 1023.44 1023.45 1023.46 1023.48 1023.52 1023.58
1019.61 1020.24 1020.74 1021.03 1021.07 1020.83 1020.33 1019.62 1018.78 1017.91 1017.13 1016.50 1016.10 1015.95 1016.04 1016.32 1016.73 1017.22 1017.70 1018.14 1018.51 1018.82 1019.08 1019.31 1019.56 1019.84 1020.17 1020.55 1020.97 1021.40 1021.83 1022.23 1022.59 1022.90 1023.15 1023.36 1023.53 1023.67 1023.78 1023.87 1023.93 1023.98 1024.02 1024.04 1024.06 1024.09 1024.12 1024.16 1024.22
Thickness
5790 5790 5787 5775 5753 5736 5730 5738 5745 5747 5748 5754 5757 5755 5749 5744 5740 5737 5753 5762 5762 5762 5762 5762 5762 5761 5759 5758 5757 5756 5755 5754 5753 5752 5751 5750 5750 5749 5748 5747 5747 5747 5746 5746 5746 5746 5746 5746 5746
5788 5787 5778 5761 5738 5722 5727 5739 5742 5747 5752 5756 5756 5754 5749 5745 5749 5750 5755 5759 5761 5760 5760 5760 5760 5758 5757 5756 5755 5754 5753 5752 5751 5750 5749 5748 5747 5747 5746 5745 5745 5744 5744 5744 5743 5743 5743 5743 5743
5787 5782 5763 5746 5731 5724 5729 5740 5743 5749 5756 5755 5750 5750 5747 5744 5749 5751 5755 5758 5758 5758 5758 5758 5757 5756 5755 5754 5753 5751 5750 5750 5749 5748 5747 5746 5745 5744 5743 5743 5742 5742 5741 5741 5740 5740 5740 5740 5741
5779 5767 5754 5737 5728 5733 5738 5741 5746 5747 5751 5753 5749 5742 5745 5750 5751 5753 5756 5756 5755 5755 5755 5755 5754 5753 5752 5751 5750 5749 5748 5747 5746 5746 5745 5744 5743 5742 5741 5740 5740 5739 5738 5738 5737 5737 5737 5737 5738
5771 5753 5736 5726 5728 5736 5741 5745 5747 5743 5744 5746 5745 5737 5738 5747 5753 5754 5754 5754 5752 5752 5752 5751 5751 5750 5749 5749 5748 5747 5746 5745 5744 5743 5742 5741 5740 5739 5739 5738 5737 5736 5736 5735 5735 5734 5734 5734 5734
5753 5742 5723 5717 5725 5734 5739 5744 5744 5740 5740 5742 5741 5735 5734 5745 5748 5749 5751 5750 5750 5749 5748 5748 5748 5747 5747 5746 5745 5744 5743 5742 5742 5741 5740 5739 5738 5737 5736 5735 5734 5733 5733 5732 5732 5731 5731 5731 5731
5744 5732 5721 5722 5723 5728 5736 5743 5740 5737 5736 5737 5740 5732 5733 5740 5745 5747 5747 5746 5746 5746 5745 5744 5744 5744 5743 5742 5742 5741 5741 5740 5739 5739 5738 5737 5736 5735 5734 5733 5732 5731 5730 5730 5729 5728 5728 5728 5728
5748 5732 5721 5720 5721 5726 5737 5741 5740 5738 5734 5741 5741 5730 5729 5737 5743 5744 5743 5742 5742 5741 5741 5740 5740 5739 5739 5739 5738 5738 5738 5737 5737 5736 5736 5735 5733 5732 5731 5731 5730 5729 5728 5727 5726 5726 5725 5725 5725
5750 5724 5714 5719 5722 5727 5736 5736 5737 5741 5736 5736 5737 5736 5738 5740 5740 5738 5736 5736 5736 5737 5737 5736 5736 5736 5735 5735 5735 5735 5735 5735 5734 5734 5733 5733 5731 5730 5729 5728 5727 5726 5725 5724 5723 5723 5722 5722 5721
5738 5716 5721 5730 5732 5730 5734 5734 5734 5732 5728 5727 5729 5733 5736 5736 5734 5732 5730 5729 5730 5731 5732 5733 5733 5732 5732 5732 5732 5732 5732 5732 5732 5732 5731 5730 5729 5728 5727 5726 5725 5724 5723 5722 5721 5719 5718 5718 5717
5734 5722 5727 5732 5736 5735 5732 5731 5733 5727 5721 5724 5725 5726 5730 5729 5729 5728 5727 5727 5727 5728 5729 5730 5730 5729 5729 5730 5729 5729 5730 5730 5730 5730 5729 5728 5727 5725 5724 5723 5722 5721 5720 5719 5717 5716 5715 5714 5714
5729 5727 5730 5731 5735 5733 5730 5729 5726 5724 5724 5730 5729 5728 5727 5725 5724 5725 5724 5725 5725 5725 5726 5727 5727 5727 5727 5727 5727 5727 5727 5727 5728 5728 5727 5726 5724 5723 5722 5721 5719 5718 5717 5716 5714 5713 5712 5711 5710
5724 5723 5727 5729 5730 5729 5728 5723 5721 5720 5724 5727 5726 5724 5722 5722 5722 5723 5724 5723 5724 5723 5723 5724 5726 5725 5725 5725 5725 5725 5725 5725 5725 5725 5725 5724 5722 5720 5719 5718 5717 5715 5714 5713 5711 5710 5709 5708 5708
5722 5721 5721 5723 5724 5724 5720 5718 5718 5715 5721 5721 5720 5719 5719 5720 5721 5721 5721 5721 5721 5722 5722 5723 5724 5723 5723 5723 5723 5723 5724 5723 5723 5723 5722 5722 5720 5718 5717 5715 5714 5713 5711 5710 5709 5707 5706 5705 5704
5723 5715 5713 5715 5718 5718 5717 5707 5709 5714 5716 5714 5714 5715 5716 5717 5719 5720 5721 5721 5721 5720 5721 5721 5722 5722 5721 5721 5721 5721 5721 5721 5721 5720 5720 5719 5718 5716 5715 5713 5712 5710 5709 5707 5706 5704 5704 5702 5701
5714 5704 5696 5707 5714 5715 5709 5695 5707 5712 5711 5708 5709 5711 5712 5714 5716 5719 5720 5721 5720 5719 5719 5720 5721 5720 5719 5719 5719 5719 5719 5719 5718 5718 5718 5717 5716 5715 5713 5711 5709 5708 5707 5705 5703 5701 5699 5698 5697
5697 5688 5690 5698 5710 5710 5704 5696 5706 5710 5708 5704 5705 5707 5708 5710 5713 5717 5718 5719 5719 5719 5719 5718 5718 5717 5717 5717 5717 5716 5716 5716 5716 5716 5715 5715 5714 5713 5711 5709 5707 5706 5705 5703 5701 5698 5697 5694 5693
5687 5687 5689 5692 5704 5704 5698 5697 5703 5706 5705 5703 5703 5704 5706 5708 5711 5715 5717 5718 5718 5718 5718 5716 5715 5715 5715 5714 5714 5713 5713 5713 5713 5713 5713 5713 5712 5711 5710 5708 5706 5705 5703 5701 5699 5696 5695 5693 5692
5698 5691 5688 5694 5704 5700 5695 5695 5700 5703 5702 5701 5700 5702 5704 5707 5712 5714 5715 5715 5715 5714 5714 5713 5713 5712 5712 5711 5710 5709 5708 5709 5710 5710 5710 5711 5710 5709 5708 5706 5704 5703 5701 5698 5697 5695 5692 5690 5690
5697 5689 5687 5694 5702 5699 5693 5693 5700 5702 5702 5703 5702 5702 5705 5706 5708 5710 5711 5712 5712 5712 5711 5711 5711 5710 5711 5710 5709 5709 5707 5706 5707 5707 5708 5708 5708 5707 5706 5704 5702 5701 5699 5697 5695 5694 5690 5688 5688
5693 5689 5688 5688 5694 5696 5691 5688 5694 5701 5704 5705 5706 5706 5707 5707 5707 5707 5708 5709 5710 5709 5710 5711 5710 5709 5709 5709 5708 5707 5705 5704 5704 5704 5705 5705 5706 5705 5704 5703 5701 5700 5698 5696 5694 5693 5691 5687 5686
5688 5698 5696 5691 5682 5676 5684 5670 5689 5695 5698 5702 5705 5705 5706 5708 5708 5708 5708 5708 5709 5710 5710 5710 5709 5708 5708 5707 5707 5705 5702 5700 5700 5701 5702 5703 5703 5703 5702 5701 5700 5699 5697 5695 5694 5693 5691 5689 5686
5697 5702 5697 5691 5682 5675 5678 5672 5682 5693 5693 5701 5706 5708 5709 5709 5710 5709 5709 5710 5710 5710 5710 5709 5708 5707 5707 5706 5705 5704 5701 5700 5699 5699 5700 5700 5700 5700 5700 5699 5698 5697 5695 5694 5693 5692 5691 5689 5687
5704 5695 5688 5681 5674 5665 5675 5671 5677 5689 5699 5706 5711 5712 5712 5712 5712 5711 5711 5711 5710 5710 5709 5707 5706 5706 5706 5705 5704 5702 5700 5699 5697 5697 5697 5697 5697 5697 5698 5697 5697 5695 5694 5693 5692 5691 5690 5688 5687
5696 5679 5663 5661 5656 5661 5678 5675 5684 5707 5713 5715 5716 5716 5716 5715 5713 5711 5709 5708 5708 5708 5707 5706 5705 5704 5704 5703 5702 5702 5700 5698 5697 5696 5695 5694 5694 5694 5695 5695 5694 5693 5692 5691 5690 5689 5688 5687 5685
5691 5683 5663 5656 5654 5662 5676 5674 5695 5718 5722 5724 5723 5721 5718 5715 5714 5713 5711 5710 5708 5708 5707 5705 5704 5703 5703 5702 5701 5700 5699 5697 5696 5695 5694 5694 5693 5693 5693 5693 5692 5691 5691 5689 5688 5687 5686 5685 5684
5688 5681 5684 5670 5667 5661 5670 5684 5704 5720 5720 5722 5721 5719 5716 5716 5716 5715 5713 5711 5709 5708 5707 5706 5704 5702 5702 5701 5700 5698 5697 5696 5695 5694 5694 5693 5692 5692 5692 5691 5690 5689 5688 5687 5686 5684 5683 5682 5681
5700 5690 5675 5668 5659 5656 5669 5678 5687 5708 5713 5718 5718 5717 5717 5717 5716 5715 5714 5712 5711 5709 5708 5706 5704 5703 5701 5700 5698 5697 5696 5695 5694 5693 5692 5691 5691 5690 5689 5688 5687 5686 5685 5684 5683 5681 5680 5679 5678
5691 5687 5678 5668 5667 5657 5657 5675 5708 5712 5716 5717 5719 5720 5719 5718 5717 5716 5715 5713 5711 5709 5706 5704 5702 5701 5699 5698 5697 5695 5694 5693 5692 5690 5690 5689 5688 5687 5687 5686 5684 5683 5682 5681 5680 5678 5677 5676 5674
5699 5692 5681 5669 5666 5664 5660 5677 5719 5718 5720 5720 5721 5722 5722 5721 5719 5718 5715 5712 5709 5707 5705 5704 5702 5700 5699 5697 5695 5693 5692 5691 5689 5688 5687 5687 5686 5685 5684 5683 5681 5680 5679 5678 5676 5675 5674 5672 5671